Location: Kilchberg
(47.3183°N, 8.5512°E)
Time: 21:07:02
(UTC+00:00)

Daily predictions for brighter satellites

Satellite Brightness Start Highest point End
(mag) Time Altitude Azimuth Time Altitude Azimuth Time Altitude Azimuth
COSMOS 2487 2.4 16:46:45 10° NNW 16:50:11 59° ENE 16:53:34 10° SSE
Meteor 1-11 4.5 16:44:48 10° N 16:50:21 51° ENE 16:55:56 10° SSE
Aureole 1 Rocket 3.8 16:47:37 10° NW 16:50:27 39° WSW 16:53:20 10° S
Cosmos 1741 Rocket 4.0 16:45:18 10° NNW 16:50:34 74° ENE 16:55:47 10° SSE
USA 307 4.0 16:48:23 10° WNW 16:52:18 33° N 16:56:12 10° ENE
Envisat 3.8 16:49:27 10° S 16:54:26 58° W 16:59:29 10° NNW
Cosmos 1300 3.8 16:52:21 10° SE 16:55:23 23° E 16:58:26 10° NE
Timation 2 Rocket 4.5 16:49:57 10° NNW 16:56:11 44° NE 17:02:36 10° ESE
FengYun 1-2 T 4.3 16:51:04 10° SSE 16:56:41 70° ENE 17:02:19 10° N
USA 308 4.0 16:53:11 10° WNW 16:57:05 33° N 17:00:59 10° ENE
NOAA 11 4.2 16:53:00 10° SSE 16:58:23 64° ENE 17:03:46 10° N
BREEZE-M R/B 3.2 16:56:38 10° W 16:59:54 73° N 17:06:16 10° ENE
Feng Yun 1-1 Rocket 4.4 16:56:07 10° SSE 17:01:54 62° ENE 17:07:45 10° N
GEOS 3 Rocket 4.3 16:57:13 10° ESE 17:02:07 39° NE 17:07:06 10° NNW
Helios 1A Rocket 3.7 16:58:41 10° SE 17:02:18 30° ENE 17:05:55 10° N
Cosmos 1850 Rocket 4.2 17:02:25 10° NNW 17:07:44 79° WSW 17:13:03 10° SSE
Cosmos 2369 Rocket 3.8 17:03:58 10° WSW 17:09:06 35° NW 17:14:20 10° NNE
Cosmos 2297 Rocket 3.0 17:04:50 10° NNW 17:09:55 32° NE 17:14:57 10° ESE
Cosmos 1939 Rocket 3.1 17:06:24 10° SE 17:10:14 47° ENE 17:14:02 10° N
COSMO-SKYMED 1 2.9 17:09:41 10° NNE 17:13:51 42° E 17:17:59 10° S
Cosmos 1452 Rocket 3.9 17:11:07 10° SSW 17:16:21 68° WNW 17:21:38 10° NNE
FALCON 9 DEB 4.3 17:13:27 10° W 17:16:38 35° N 17:19:24 13° NE
Cosmos 1689 Rocket 2.6 17:13:57 10° NNE 17:16:39 34° E 17:19:19 10° SSE
Okean O Rocket 2.8 17:12:53 10° S 17:17:07 47° W 17:21:21 10° NNW
Aureole 3 Rocket 3.9 17:15:01 10° SE 17:18:16 28° E 17:22:23 10° NNE
H-2A R/B 3.0 17:15:36 10° ESE 17:20:07 28° ENE 17:24:42 10° N
Cosmos 2058 4.4 17:18:14 10° NNE 17:20:53 16° ENE 17:21:44 15° E
H-2A R/B 3.8 17:17:28 10° N 17:21:13 32° WNW 17:24:55 10° SW
Cosmos 1328 4.3 17:17:52 10° NNW 17:21:48 64° W 17:25:42 10° S
IRS-1C Rocket 4.0 17:19:57 10° SSE 17:25:12 75° ENE 17:30:29 10° NNW
ADEOS Rocket 4.2 17:19:23 10° N 17:25:20 50° WNW 17:31:54 10° SW
Cosmos 1340 3.4 17:22:56 10° N 17:26:19 30° ENE 17:29:41 10° SE
CZ-4 R/B 1.7 17:24:16 10° SE 17:27:57 41° ENE 17:31:36 10° N
Cosmos 1825 Rocket 3.6 17:23:40 10° N 17:28:09 87° W 17:32:34 10° S
ERS-2 3.0 17:25:02 10° N 17:28:35 52° WNW 17:32:07 10° SSW
Cosmos 1553 Rocket 4.5 17:24:01 10° SSE 17:29:47 37° E 17:35:30 10° NNE
BREEZE-M DEB (TANK) 4.4 17:27:38 10° W 17:31:25 63° N 17:42:44 14° ENE
YAOGAN 1 2.9 17:27:41 10° SE 17:31:44 41° ENE 17:35:49 10° N
Lacrosse 5 3.2 17:30:16 10° W 17:34:49 32° NNW 17:38:57 12° NE
Cosmos 2219 3.5 17:29:56 10° NNW 17:35:31 49° NE 17:41:06 10° SE
ERBS 4.4 17:33:13 10° WNW 17:35:46 20° NNW 17:38:04 11° NNE
Meteor 2-21 Rocket 4.4 17:29:37 10° N 17:35:51 87° E 17:42:00 10° S
SKYMED 3 4.5 17:33:33 10° NNE 17:37:56 75° ESE 17:42:16 10° S
CZ-4B R/B 2.9 17:36:53 10° N 17:39:58 38° WNW 17:42:56 10° SW
SAR-Lupe-4 3.8 17:36:54 10° N 17:40:29 70° WNW 17:44:02 10° SSW
Cosmos 1400 Rocket 3.1 17:38:25 10° SSE 17:42:21 45° E 17:46:17 10° NNE
Geosat 4.4 17:37:41 10° NE 17:42:28 42° ESE 17:47:13 10° S
Cosmos 44 3.3 17:39:53 10° SSW 17:44:14 53° ESE 17:47:39 17° NE
USA 305 3.8 17:40:50 10° WNW 17:44:50 36° N 17:46:51 23° ENE
Okean-O 2.5 17:40:36 10° SSE 17:45:00 72° ENE 17:49:27 10° N
Cosmos 1726 Rocket 3.4 17:41:01 10° S 17:45:21 85° E 17:49:45 10° N
CZ-4C R/B 4.2 17:43:15 10° NW 17:47:53 20° N 17:52:05 13° NE
NOSS 2-2 (E) 4.5 17:45:05 10° NW 17:50:41 80° NE 17:58:30 10° SE
USA 306 3.8 17:47:06 10° WNW 17:51:07 37° N 17:52:49 26° ENE
Cosmos 1745 Rocket 4.2 17:48:08 10° N 17:54:10 47° ENE 18:00:14 10° SSE
SL-08 R/B 4.4 17:49:38 10° N 17:55:49 65° E 18:01:53 10° SSE
Aureole 3 2.5 17:54:51 10° S 17:58:11 75° E 18:00:42 14° NNE
Cosmos 1606 Rocket 4.3 17:55:32 10° SSW 17:59:48 54° WNW 18:04:08 10° N
Cosmos 1331 Rocket 4.2 17:54:49 10° SSW 17:59:58 71° WNW 18:05:08 10° NNE
FALCON 9 DEB 3.6 17:57:02 10° SSW 17:59:55 37° SSE 17:59:55 37° SSE
SKYMED 2 4.0 17:57:40 10° N 18:01:59 62° WNW 18:06:16 10° SSW
Cosmos 2228 4.1 18:00:04 10° SSW 18:04:08 45° WNW 18:08:15 10° N
GENESIS II 4.3 18:00:43 10° SW 18:04:45 78° NW 18:07:02 25° NNE
ATLAS 5 CENTAUR R/B 4.0 18:02:45 10° WNW 18:05:40 17° NNW 18:08:50 10° NNE
SL-4 R/B 2.5 18:03:45 10° WNW 18:07:10 41° N 18:08:01 35° NNE
NOSS 2-2 (D) 4.5 18:02:02 10° NW 18:07:33 86° NE 18:13:51 16° SE
FALCON 9 DEB 3.5 18:04:34 10° SW 18:07:15 42° SSE 18:07:15 42° SSE
CZ-2C R/B 3.2 18:01:57 10° SSE 18:07:47 86° ENE 18:13:30 10° NNW
Cosmos 292 Rocket 3.9 18:04:20 10° SSW 18:09:07 75° WNW 18:13:58 10° NNE
ARGOS 3.2 18:09:09 21° SE 18:12:36 54° ENE 18:17:54 10° N
Cosmos 1346 Rocket 2.9 18:09:06 10° N 18:12:50 51° ENE 18:12:50 51° ENE
Cosmos 2227 Rocket 2.1 18:08:12 10° NNW 18:13:52 71° ENE 18:17:08 26° SE
Cosmos 1386 Rocket 4.5 18:08:06 10° N 18:14:29 62° ENE 18:20:46 10° SSE
FALCON 9 DEB 3.7 18:12:31 10° SW 18:15:00 41° S 18:15:00 41° S
Meteor 2-10 Rocket 3.6 18:10:28 10° S 18:15:41 53° E 18:20:44 10° NNE
Meteor 2-15 4.4 18:09:47 10° S 18:15:50 63° E 18:21:54 10° NNE
SeaSat 1 2.4 18:14:54 34° SE 18:16:59 67° ENE 18:21:55 10° NNW
Cosmos 1892 2.6 18:13:48 10° N 18:17:43 83° E 18:19:18 34° SSE
USA 215 3.5 18:17:28 33° E 18:20:16 55° NNE 18:26:37 10° NW
Cosmos 1656 3.6 18:17:20 10° SSW 18:22:49 66° ESE 18:26:21 23° NE
Cosmos 1709 Rocket 4.2 18:18:15 10° N 18:24:22 46° ENE 18:25:51 40° ESE
Cosmos 2263 Rocket 3.7 18:20:32 10° N 18:24:14 20° NE 18:24:14 20° NE
Cosmos 968 Rocket 3.3 18:19:32 10° NNW 18:24:48 77° ENE 18:26:57 36° SSE
CSL-04 Rocket 3.6 18:19:57 10° SSE 18:25:30 90° ENE 18:31:05 10° NNW
ATLAS 2AS CENTAUR R/B 3.7 18:18:59 10° NW 18:25:47 32° NNE 18:27:53 28° NE
Cosmos 2058 Rocket 3.7 18:21:59 10° SSW 18:26:24 58° WNW 18:30:51 10° N
Cosmos 1302 Rocket 4.1 18:23:12 10° SSW 18:28:27 77° WNW 18:33:47 10° NNE
HJ-1C 4.3 18:30:28 42° NNW 18:30:28 42° NNW 18:32:50 10° NNW
FALCON 9 DEB 4.3 18:27:10 10° SW 18:29:11 35° SW 18:29:11 35° SW
Cosmos 1486 Rocket 3.9 18:25:54 10° NNW 18:31:17 90° ENE 18:33:46 33° SSE
USA 307 3.4 18:28:52 10° NW 18:32:53 47° NNE 18:32:53 47° NNE
Cosmos 1697 Rocket 3.4 18:29:18 10° S 18:32:53 35° SSE 18:32:53 35° SSE
USA 308 3.4 18:33:37 10° NW 18:37:27 48° N 18:37:27 48° N
GEOS 3 Rocket 4.2 18:36:45 23° SSE 18:39:59 55° SW 18:45:18 10° NW
Cosmos 1503 Rocket 3.9 18:35:17 10° NNW 18:40:29 64° ENE 18:40:29 64° ENE
Cosmos 883 Rocket 4.4 18:36:22 10° S 18:42:24 58° E 18:48:24 10° NNE
S3M 3.9 18:37:23 10° S 18:43:30 89° W 18:49:42 10° N
CRYOSAT 2 4.4 18:39:34 10° N 18:44:27 76° W 18:49:18 10° SSW
Cosmos 1825 4.3 18:43:23 10° N 18:44:29 18° N 18:44:29 18° N
DMSP B5D2-7 4.5 18:48:09 71° E 18:48:17 71° ENE 18:53:42 10° N
Cosmos 1354 Rocket 4.0 18:44:52 10° NNW 18:49:38 64° NNE 18:49:38 64° NNE
Milstar 3 4.5 18:46:56 10° SW 18:51:02 17° S 18:51:54 16° SSE
Cosmos 1408 4.2 18:48:36 10° NNW 18:50:33 29° NNW 18:50:33 29° NNW
Cosmos 2297 Rocket 3.0 18:48:44 10° NW 18:54:11 49° WSW 18:57:46 21° S
Cosmos 2058 3.7 18:54:07 10° NNW 18:57:58 48° W 18:57:58 48° W
MOS 1 Rocket 3.9 18:53:52 10° N 18:58:20 54° WNW 19:03:02 10° SSW
H-2A R/B 3.0 18:54:03 10° S 18:59:15 50° W 19:04:35 10° NNW
CZ-4 R/B 4.1 19:00:27 10° SW 19:03:09 18° W 19:05:51 10° NW
Timation 1 Rocket 4.4 19:02:57 10° NNW 19:08:21 66° NNE 19:08:21 66° NNE
Ariane Rocket 3.8 19:18:51 44° NNW 19:18:51 44° NNW 19:22:20 10° NNW
Lacrosse 5 3.4 19:14:35 10° NW 19:18:09 27° N 19:18:09 27° N
BREEZE-M R/B 4.1 19:18:08 10° WNW 19:23:06 87° NNE 19:23:14 86° ENE
Cosmos 2082 4.3 19:25:01 10° NW 19:30:18 54° W 19:30:18 54° W
CZ-4C R/B 3.7 19:32:05 10° NNW 19:37:16 36° NNE 19:37:16 36° NNE
ATLAS 5 CENTAUR R/B 4.5 19:49:53 10° NNW 19:51:04 13° N 19:51:04 13° N
NOSS 3-4 (A) 4.2 19:48:28 10° NW 19:53:45 56° NNW 19:53:45 56° NNW
NOSS 3-4 (C) 4.2 19:48:35 10° NW 19:53:51 56° NNW 19:53:51 56° NNW
Cosmos 2227 Rocket 4.4 19:53:22 10° NW 19:57:19 20° W 19:59:01 17° WSW
USA 215 3.9 20:04:50 50° W 20:04:50 50° W 20:09:44 10° WNW
Cosmos 2263 Rocket 4.1 20:03:43 10° NNW 20:05:55 24° NNW 20:05:55 24° NNW
ATLAS 2AS CENTAUR R/B 3.6 20:10:14 10° NW 20:15:19 46° NW 20:15:19 46° NW
